[Date Prev][Date Next][Thread Prev][Thread Next] - [Date Index][Thread Index][Author Index]
2 Line ISS Keps 3-19
- Subject: [sarex] 2 Line ISS Keps 3-19
- From: "Dave Larsen PhD" <doc@xxxxxxxxxxx>
- Date: Tue, 19 Mar 2002 02:54:46 -0800
ISS
1 25544U 98067A 02078.16403237 .00058075 00000-0 76217-3 0 2021
2 25544 51.6368 145.2271 0003710 286.6644 164.6131 15.57958239189992
----
Via the sarex mailing list at AMSAT.ORG courtesy of AMSAT-NA.
To unsubscribe, send "unsubscribe sarex" to Majordomo@amsat.org
AMSAT Home